QPF
0.05 0.04 0.04 0.05 0.05 0.04 0.05 0.04 0.04 0.04 0.02 0.01 0.01 0.01 0.01 0.01 0.04 0.05 0.05 0.06 0.09 0.10 0.10 0.12 0.12 0.11 0.10 0.08 0.07 0.07 0.08 0.08 0.07 0.05 0.06 0.06 0.06 0.07 0.07 0.06 0.06 0.05 0.04
0.04 0.03 0.04 0.05 0.06 0.06 0.04 0.03 0.02 0.02 0.01 0.02 0.02 0.01 0.01 0.01 0.03 0.05 0.05 0.04 0.07 0.09 0.08 0.10 0.09 0.09 0.08 0.08 0.09 0.09 0.09 0.10 0.09 0.09 0.11 0.11 0.07 0.06 0.06 0.05 0.03 0.03 0.03
0.05 0.03 0.03 0.03 0.03 0.03 0.03 0.02 0.01 0.01 0.01 0.02 0.02 0.02 0.02 0.01 0.01 0.02 0.03 0.03 0.05 0.06 0.06 0.07 0.07 0.08 0.07 0.08 0.09 0.10 0.09 0.09 0.09 0.09 0.11 0.11 0.08 0.07 0.06 0.05 0.04 0.04 0.03
0.05 0.04 0.03 0.02 0.02 0.03 0.03 0.02 0.02 0.01 0.02 0.03 0.04 0.03 0.02 0.02 0.02 0.01 0.01 0.03 0.04 0.04 0.04 0.05 0.06 0.06 0.06 0.07 0.09 0.09 0.09 0.09 0.09 0.09 0.10 0.10 0.09 0.07 0.06 0.05 0.06 0.05 0.05
0.08 0.06 0.04 0.02 0.03 0.03 0.02 0.02 0.02 0.02 0.01 0.02 0.02 0.02 0.02 0.02 0.02 0.02 0.03 0.03 0.03 0.02 0.03 0.04 0.05 0.07 0.07 0.06 0.08 0.09 0.09 0.09 0.08 0.08 0.07 0.06 0.06 0.06 0.06 0.06 0.07 0.07 0.07
0.05 0.05 0.03 0.02 0.04 0.03 0.04 0.03 0.02 0.02 0.02 0.02 0.03 0.03 0.03 0.02 0.02 0.02 0.03 0.03 0.03 0.02 0.02 0.03 0.05 0.06 0.07 0.08 0.08 0.09 0.08 0.07 0.07 0.07 0.06 0.06 0.05 0.05 0.04 0.05 0.06 0.06 0.05
0.03 0.03 0.02 0.02 0.02 0.02 0.02 0.02 0.01 0.01 0.02 0.03 0.03 0.03 0.03 0.02 0.02 0.02 0.04 0.03 0.04 0.04 0.04 0.04 0.04 0.05 0.08 0.11 0.12 0.10 0.08 0.05 0.05 0.05 0.06 0.06 0.06 0.06 0.06 0.06 0.06 0.05 0.05
0.02 0.02 0.02 0.02 0.02 0.01 0.01 0.01 0.01 0.02 0.02 0.03 0.03 0.04 0.03 0.03 0.03 0.04 0.04 0.04 0.04 0.04 0.05 0.08 0.10 0.11 0.12 0.11 0.07 0.06 0.05 0.04 0.05 0.05 0.05 0.05 0.06 0.06 0.05 0.05 0.05 0.04 0.03
0.01 0.01 0.01 0.01 0.01 0.01 0.02 0.02 0.01 0.02 0.03 0.03 0.04 0.05 0.06 0.05 0.03 0.04 0.04 0.03 0.04 0.03 0.03 0.05 0.07 0.08 0.09 0.07 0.05 0.04 0.03 0.03 0.04 0.05 0.05 0.05 0.04 0.04 0.03 0.03 0.04 0.03 0.03
0.02 0.02 0.02 0.02 0.02 0.02 0.02 0.01 0.01 0.02 0.04 0.05 0.06 0.06 0.06 0.05 0.04 0.04 0.04 0.03 0.03 0.02 0.02 0.02 0.03 0.04 0.06 0.05 0.05 0.04 0.03 0.04 0.04 0.04 0.04 0.04 0.03 0.03 0.04 0.03 0.03 0.03 0.03
0.04 0.04 0.04 0.03 0.03 0.02 0.03 0.02 0.02 0.02 0.04 0.06 0.06 0.05 0.04 0.04 0.03 0.04 0.04 0.04 0.04 0.03 0.02 0.02 0.02 0.02 0.02 0.02 0.03 0.03 0.04 0.04 0.04 0.03 0.03 0.02 0.02 0.02 0.02 0.03 0.03 0.03 0.03
0.04 0.05 0.04 0.03 0.03 0.04 0.06 0.06 0.06 0.06 0.05 0.05 0.06 0.06 0.04 0.04 0.04 0.04 0.04 0.05 0.05 0.04 0.04 0.03 0.02 0.02 0.01 0.01 0.01 0.01 0.01 0.01 0.01 0.01 0.01 0.01 0.02 0.01 0.02 0.02 0.03 0.03 0.04
0.04 0.04 0.04 0.04 0.04 0.04 0.04 0.05 0.04 0.04 0.04 0.04 0.03 0.03 0.03 0.03 0.03 0.03 0.03 0.03 0.03 0.02 0.02 0.02 0.01 0.01 0.01 0.01 0.01 0.01 0.01 0.00 0.01 0.01 0.01 0.01 0.01 0.01 0.01 0.02 0.03 0.03 0.03
0.04 0.04 0.06 0.05 0.04 0.03 0.03 0.04 0.04 0.04 0.04 0.03 0.03 0.04 0.05 0.06 0.06 0.04 0.03 0.02 0.02 0.01 0.01 0.01 0.01 0.01 0.01 0.01 0.01 0.01 0.01 0.01 0.01 0.01 0.01 0.01 0.00 0.00 0.01 0.01 0.01 0.02 0.02
0.03 0.03 0.03 0.03 0.02 0.02 0.01 0.01 0.02 0.03 0.04 0.05 0.06 0.06 0.05 0.05 0.04 0.03 0.03 0.02 0.01 0.01 0.01 0.01 0.01 0.01 0.01 0.01 0.00 0.00 0.00 0.00 0.01 0.01 0.01 0.01 0.01 0.01 0.00 0.00 0.01 0.01 0.01
0.02 0.02 0.02 0.02 0.02 0.01 0.01 0.01 0.01 0.01 0.01 0.01 0.02 0.01 0.01 0.01 0.01 0.01 0.01 0.01 0.01 0.01 0.01 0.01 0.00 0.00 0.00 0.00 0.01 0.01 0.01 0.01 0.01 0.01 0.01 0.01 0.01 0.01 0.01 0.01 0.01 0.01 0.01
0.03 0.02 0.02 0.02 0.02 0.01 0.01 0.01 0.01 0.01 0.01 0.00 0.01 0.01 0.00 0.00 0.00 0.01 0.01 0.01 0.01 0.01 0.01 0.00 0.00 0.00 0.00 0.00 0.01 0.00 0.00 0.00 0.00 0.00 0.00 0.00 0.01 0.01 0.01 0.01 0.00 0.00 0.01
0.05 0.05 0.04 0.02 0.02 0.02 0.01 0.01 0.01 0.01 0.00 0.01 0.00 0.01 0.01 0.01 0.01 0.01 0.01 0.01 0.01 0.01 0.01 0.01 0.00 0.00 0.00 0.00 0.00 0.00 0.00 0.00 0.00 0.00 0.00 0.00 0.01 0.01 0.01 0.01 0.01 0.01 0.01
0.04 0.04 0.04 0.02 0.02 0.02 0.01 0.01 0.01 0.00 0.00 0.01 0.00 0.00 0.01 0.01 0.00 0.00 0.01 0.01 0.01 0.01 0.01 0.01 0.01 0.00 0.00 0.00 0.00 0.00 0.00 0.00 0.00 0.00 0.00 0.00 0.01 0.01 0.01 0.01 0.01 0.01 0.02
0.05 0.06 0.05 0.04 0.04 0.03 0.02 0.02 0.01 0.01 0.01 0.01 0.00 0.00 0.01 0.01 0.01 0.01 0.00 0.01 0.01 0.02 0.02 0.02 0.01 0.01 0.00 0.00 0.00 0.00 0.00 0.00 0.00 0.00 0.01 0.01 0.01 0.02 0.02 0.03 0.02 0.03 0.03
0.06 0.09 0.09 0.09 0.08 0.06 0.04 0.03 0.02 0.02 0.01 0.01 0.00 0.01 0.01 0.01 0.01 0.01 0.01 0.01 0.01 0.01 0.01 0.01 0.01 0.01 0.00 0.00 0.00 0.00 0.00 0.00 0.00 0.00 0.00 0.00 0.01 0.01 0.02 0.02 0.03 0.03 0.04
0.06 0.09 0.08 0.06 0.04 0.03 0.02 0.02 0.02 0.01 0.01 0.01 0.00 0.01 0.01 0.01 0.01 0.01 0.01 0.01 0.00 0.00 0.00 0.00 0.00 0.00 0.00 0.00 0.00 0.00 0.00 0.00 0.00 0.00 0.00 0.00 0.00 0.01 0.01 0.02 0.02 0.03 0.04
0.03 0.03 0.02 0.02 0.02 0.02 0.02 0.01 0.01 0.01 0.01 0.00 0.00 0.00 0.01 0.01 0.01 0.01 0.01 0.01 0.00 0.00 0.00 0.00 0.00 0.01 0.01 0.01 0.01 0.01 0.01 0.01 0.01 0.01 0.01 0.01 0.01 0.01 0.01 0.02 0.02 0.03 0.03
0.02 0.01 0.01 0.01 0.02 0.02 0.02 0.01 0.01 0.00 0.00 0.00 0.00 0.01 0.01 0.01 0.01 0.00 0.00 0.00 0.01 0.01 0.01 0.01 0.01 0.01 0.01 0.01 0.01 0.01 0.01 0.01 0.01 0.01 0.01 0.01 0.01 0.01 0.01 0.01 0.02 0.02 0.02
0.01 0.02 0.01 0.01 0.01 0.01 0.01 0.01 0.01 0.01 0.01 0.01 0.01 0.01 0.01 0.01 0.01 0.01 0.01 0.01 0.01 0.01 0.01 0.00 0.00 0.00 0.01 0.01 0.01 0.01 0.01 0.01 0.01 0.01 0.01 0.01 0.01 0.01 0.01 0.01 0.01 0.01 0.01
0.01 0.01 0.01 0.02 0.03 0.04 0.04 0.03 0.03 0.03 0.02 0.02 0.01 0.01 0.01 0.01 0.01 0.01 0.01 0.01 0.01 0.00 0.00 0.00 0.00 0.01 0.01 0.01 0.01 0.01 0.01 0.01 0.00 0.01 0.01 0.00 0.00 0.00 0.00 0.00 0.01 0.01 0.01
MSLP
1017.27 1017.63 1017.98 1018.31 1018.59 1018.82 1019.00 1019.14 1019.26 1019.36 1019.46 1019.55 1019.61 1019.63 1019.61 1019.52 1019.39 1019.21 1019.01 1018.82 1018.66 1018.52 1018.42 1018.34 1018.26 1018.14 1017.99 1017.78 1017.53 1017.27 1017.02 1016.84 1016.76 1016.79 1016.93 1017.18 1017.48 1017.80 1018.09 1018.29 1018.40 1018.38 1018.26
1017.18 1017.56 1017.95 1018.31 1018.63 1018.90 1019.13 1019.32 1019.48 1019.63 1019.77 1019.90 1020.00 1020.06 1020.06 1020.01 1019.91 1019.76 1019.59 1019.41 1019.24 1019.09 1018.96 1018.83 1018.70 1018.53 1018.33 1018.09 1017.84 1017.60 1017.41 1017.29 1017.29 1017.42 1017.66 1018.00 1018.38 1018.75 1019.07 1019.29 1019.39 1019.37 1019.23
1017.13 1017.55 1017.96 1018.35 1018.70 1019.01 1019.27 1019.50 1019.71 1019.90 1020.09 1020.26 1020.40 1020.50 1020.55 1020.55 1020.48 1020.37 1020.22 1020.06 1019.89 1019.73 1019.57 1019.40 1019.22 1019.02 1018.78 1018.53 1018.27 1018.04 1017.88 1017.82 1017.88 1018.06 1018.36 1018.74 1019.14 1019.53 1019.84 1020.05 1020.14 1020.10 1019.96
1017.15 1017.60 1018.04 1018.45 1018.82 1019.15 1019.43 1019.69 1019.94 1020.17 1020.40 1020.62 1020.81 1020.97 1021.06 1021.10 1021.08 1021.00 1020.89 1020.74 1020.58 1020.42 1020.24 1020.06 1019.85 1019.62 1019.36 1019.10 1018.84 1018.63 1018.48 1018.44 1018.52 1018.72 1019.02 1019.38 1019.76 1020.12 1020.39 1020.56 1020.60 1020.54 1020.40
1017.24 1017.73 1018.19 1018.61 1018.99 1019.32 1019.62 1019.90 1020.17 1020.44 1020.72 1020.98 1021.22 1021.42 1021.56 1021.65 1021.67 1021.63 1021.54 1021.42 1021.28 1021.13 1020.95 1020.77 1020.56 1020.33 1020.07 1019.81 1019.56 1019.35 1019.20 1019.16 1019.22 1019.38 1019.63 1019.94 1020.25 1020.53 1020.72 1020.83 1020.83 1020.73 1020.58
1017.41 1017.93 1018.40 1018.83 1019.20 1019.53 1019.82 1020.11 1020.40 1020.70 1021.00 1021.30 1021.58 1021.82 1022.01 1022.14 1022.20 1022.20 1022.15 1022.06 1021.94 1021.81 1021.66 1021.50 1021.31 1021.10 1020.86 1020.62 1020.38 1020.17 1020.02 1019.94 1019.95 1020.05 1020.22 1020.42 1020.63 1020.80 1020.91 1020.93 1020.87 1020.75 1020.60
1017.63 1018.17 1018.65 1019.07 1019.42 1019.74 1020.02 1020.31 1020.60 1020.92 1021.24 1021.57 1021.88 1022.16 1022.38 1022.54 1022.63 1022.67 1022.65 1022.60 1022.52 1022.43 1022.32 1022.20 1022.06 1021.88 1021.69 1021.47 1021.25 1021.04 1020.87 1020.75 1020.70 1020.71 1020.77 1020.87 1020.96 1021.02 1021.02 1020.97 1020.85 1020.70 1020.55
1017.87 1018.42 1018.89 1019.29 1019.63 1019.93 1020.20 1020.48 1020.77 1021.09 1021.42 1021.77 1022.10 1022.39 1022.64 1022.82 1022.95 1023.01 1023.03 1023.02 1022.99 1022.94 1022.89 1022.82 1022.74 1022.62 1022.47 1022.29 1022.10 1021.89 1021.70 1021.54 1021.42 1021.34 1021.30 1021.28 1021.26 1021.22 1021.14 1021.02 1020.87 1020.70 1020.54
1018.09 1018.63 1019.09 1019.48 1019.79 1020.07 1020.33 1020.60 1020.90 1021.21 1021.56 1021.91 1022.24 1022.55 1022.81 1023.00 1023.15 1023.24 1023.29 1023.31 1023.33 1023.34 1023.34 1023.33 1023.31 1023.25 1023.15 1023.02 1022.85 1022.65 1022.45 1022.25 1022.07 1021.92 1021.79 1021.68 1021.57 1021.45 1021.32 1021.16 1020.98 1020.81 1020.65
1018.24 1018.77 1019.21 1019.58 1019.89 1020.16 1020.42 1020.69 1020.98 1021.30 1021.65 1022.00 1022.34 1022.65 1022.91 1023.11 1023.26 1023.37 1023.44 1023.50 1023.55 1023.61 1023.66 1023.71 1023.74 1023.74 1023.69 1023.60 1023.45 1023.27 1023.06 1022.84 1022.62 1022.41 1022.23 1022.06 1021.90 1021.74 1021.58 1021.41 1021.23 1021.06 1020.92
1018.30 1018.80 1019.23 1019.59 1019.90 1020.17 1020.44 1020.73 1021.04 1021.37 1021.72 1022.08 1022.42 1022.72 1022.98 1023.18 1023.34 1023.45 1023.54 1023.62 1023.70 1023.79 1023.88 1023.97 1024.04 1024.08 1024.07 1024.01 1023.88 1023.71 1023.51 1023.28 1023.04 1022.81 1022.60 1022.41 1022.23 1022.07 1021.91 1021.75 1021.59 1021.45 1021.32
1018.26 1018.73 1019.14 1019.50 1019.82 1020.12 1020.42 1020.74 1021.08 1021.43 1021.81 1022.17 1022.51 1022.82 1023.07 1023.27 1023.42 1023.54 1023.63 1023.72 1023.81 1023.91 1024.01 1024.12 1024.21 1024.27 1024.29 1024.24 1024.14 1023.99 1023.79 1023.57 1023.34 1023.12 1022.91 1022.72 1022.56 1022.41 1022.27 1022.15 1022.02 1021.90 1021.79
1018.12 1018.56 1018.96 1019.33 1019.67 1020.01 1020.36 1020.72 1021.11 1021.51 1021.91 1022.29 1022.64 1022.95 1023.20 1023.39 1023.54 1023.65 1023.73 1023.81 1023.90 1023.99 1024.09 1024.20 1024.29 1024.35 1024.37 1024.34 1024.25 1024.11 1023.94 1023.74 1023.53 1023.33 1023.15 1022.99 1022.85 1022.74 1022.64 1022.54 1022.45 1022.35 1022.26
1017.93 1018.33 1018.72 1019.10 1019.48 1019.87 1020.27 1020.70 1021.14 1021.59 1022.03 1022.45 1022.82 1023.13 1023.38 1023.57 1023.70 1023.80 1023.87 1023.92 1023.99 1024.06 1024.14 1024.22 1024.29 1024.34 1024.35 1024.32 1024.25 1024.13 1023.98 1023.81 1023.64 1023.47 1023.33 1023.20 1023.10 1023.02 1022.95 1022.89 1022.82 1022.74 1022.66
1017.73 1018.09 1018.47 1018.86 1019.28 1019.72 1020.19 1020.69 1021.19 1021.70 1022.19 1022.64 1023.03 1023.35 1023.60 1023.79 1023.91 1023.98 1024.02 1024.06 1024.08 1024.12 1024.16 1024.21 1024.26 1024.28 1024.29 1024.26 1024.20 1024.10 1023.98 1023.85 1023.71 1023.58 1023.47 1023.38 1023.31 1023.26 1023.21 1023.16 1023.10 1023.03 1022.95
1017.58 1017.90 1018.26 1018.66 1019.11 1019.61 1020.14 1020.70 1021.27 1021.83 1022.36 1022.84 1023.25 1023.59 1023.84 1024.01 1024.12 1024.17 1024.19 1024.18 1024.17 1024.17 1024.18 1024.19 1024.21 1024.22 1024.21 1024.19 1024.14 1024.07 1023.98 1023.89 1023.79 1023.70 1023.62 1023.55 1023.50 1023.45 1023.41 1023.36 1023.29 1023.22 1023.12
1017.52 1017.80 1018.14 1018.54 1019.02 1019.56 1020.14 1020.75 1021.37 1021.98 1022.54 1023.05 1023.47 1023.81 1024.06 1024.22 1024.30 1024.33 1024.32 1024.28 1024.24 1024.21 1024.18 1024.17 1024.17 1024.17 1024.17 1024.16 1024.13 1024.09 1024.05 1023.99 1023.92 1023.86 1023.80 1023.75 1023.69 1023.64 1023.58 1023.51 1023.43 1023.33 1023.22
1017.57 1017.81 1018.13 1018.53 1019.02 1019.59 1020.20 1020.85 1021.50 1022.13 1022.72 1023.23 1023.66 1023.99 1024.22 1024.37 1024.43 1024.44 1024.40 1024.34 1024.28 1024.22 1024.18 1024.16 1024.16 1024.17 1024.19 1024.20 1024.21 1024.21 1024.20 1024.18 1024.15 1024.10 1024.05 1023.99 1023.92 1023.85 1023.76 1023.66 1023.54 1023.42 1023.28
1017.73 1017.93 1018.23 1018.63 1019.13 1019.70 1020.33 1021.00 1021.66 1022.29 1022.88 1023.38 1023.79 1024.10 1024.32 1024.44 1024.48 1024.47 1024.41 1024.34 1024.27 1024.22 1024.19 1024.18 1024.20 1024.24 1024.29 1024.34 1024.40 1024.44 1024.47 1024.48 1024.47 1024.43 1024.38 1024.30 1024.21 1024.10 1023.97 1023.83 1023.68 1023.53 1023.37
1017.96 1018.14 1018.43 1018.82 1019.31 1019.88 1020.51 1021.17 1021.82 1022.44 1023.00 1023.47 1023.85 1024.13 1024.32 1024.41 1024.44 1024.41 1024.36 1024.29 1024.23 1024.20 1024.19 1024.22 1024.28 1024.37 1024.48 1024.58 1024.69 1024.78 1024.84 1024.88 1024.88 1024.84 1024.78 1024.68 1024.55 1024.40 1024.23 1024.05 1023.87 1023.69 1023.52
1018.23 1018.39 1018.67 1019.05 1019.54 1020.10 1020.71 1021.34 1021.96 1022.54 1023.05 1023.49 1023.83 1024.07 1024.22 1024.29 1024.31 1024.28 1024.23 1024.19 1024.16 1024.17 1024.22 1024.30 1024.43 1024.58 1024.74 1024.91 1025.07 1025.20 1025.30 1025.35 1025.35 1025.31 1025.22 1025.09 1024.93 1024.74 1024.53 1024.32 1024.11 1023.91 1023.72
1018.47 1018.64 1018.91 1019.29 1019.76 1020.29 1020.87 1021.47 1022.04 1022.57 1023.03 1023.42 1023.71 1023.91 1024.03 1024.09 1024.10 1024.08 1024.06 1024.06 1024.08 1024.15 1024.26 1024.42 1024.61 1024.83 1025.06 1025.29 1025.49 1025.66 1025.78 1025.84 1025.85 1025.79 1025.67 1025.51 1025.31 1025.08 1024.84 1024.60 1024.37 1024.15 1023.95
1018.66 1018.83 1019.11 1019.47 1019.92 1020.43 1020.97 1021.52 1022.04 1022.51 1022.91 1023.24 1023.49 1023.65 1023.75 1023.81 1023.83 1023.84 1023.86 1023.91 1024.00 1024.13 1024.32 1024.56 1024.82 1025.11 1025.40 1025.68 1025.92 1026.11 1026.25 1026.31 1026.30 1026.22 1026.08 1025.88 1025.65 1025.39 1025.12 1024.86 1024.61 1024.38 1024.18
1018.77 1018.95 1019.23 1019.58 1020.01 1020.48 1020.97 1021.46 1021.92 1022.33 1022.68 1022.96 1023.17 1023.31 1023.41 1023.47 1023.51 1023.56 1023.64 1023.75 1023.91 1024.12 1024.38 1024.69 1025.02 1025.37 1025.71 1026.02 1026.29 1026.50 1026.63 1026.69 1026.66 1026.57 1026.40 1026.17 1025.91 1025.63 1025.34 1025.06 1024.80 1024.56 1024.35
1018.82 1019.01 1019.27 1019.60 1019.99 1020.42 1020.86 1021.29 1021.69 1022.04 1022.34 1022.59 1022.77 1022.91 1023.01 1023.09 1023.18 1023.28 1023.41 1023.59 1023.82 1024.10 1024.42 1024.79 1025.17 1025.56 1025.93 1026.27 1026.55 1026.76 1026.89 1026.94 1026.91 1026.79 1026.60 1026.36 1026.08 1025.78 1025.48 1025.18 1024.91 1024.66 1024.43
1018.83 1019.00 1019.24 1019.53 1019.88 1020.25 1020.63 1021.00 1021.35 1021.65 1021.91 1022.13 1022.31 1022.45 1022.58 1022.70 1022.83 1022.99 1023.18 1023.42 1023.71 1024.04 1024.42 1024.82 1025.24 1025.65 1026.03 1026.38 1026.66 1026.87 1027.00 1027.05 1027.00 1026.88 1026.69 1026.44 1026.16 1025.85 1025.54 1025.23 1024.94 1024.67 1024.43
Thickness
5770 5766 5762 5759 5755 5753 5751 5749 5746 5744 5743 5743 5742 5742 5741 5740 5739 5738 5737 5736 5735 5733 5732 5731 5730 5729 5729 5728 5727 5725 5723 5720 5713 5710 5708 5704 5700 5697 5694 5692 5690 5687 5683
5768 5764 5759 5756 5753 5751 5748 5746 5744 5742 5741 5739 5739 5738 5738 5737 5735 5734 5733 5732 5731 5729 5728 5727 5726 5725 5724 5723 5721 5720 5717 5715 5710 5703 5700 5697 5693 5690 5688 5686 5684 5681 5677
5766 5761 5756 5753 5750 5746 5744 5743 5741 5739 5737 5736 5735 5734 5734 5733 5731 5730 5729 5728 5727 5725 5724 5722 5721 5720 5718 5717 5715 5714 5712 5710 5706 5700 5695 5690 5687 5684 5681 5678 5676 5672 5671
5762 5757 5752 5749 5746 5743 5741 5739 5738 5736 5734 5732 5731 5730 5729 5728 5727 5725 5724 5723 5721 5720 5719 5717 5716 5714 5712 5711 5709 5707 5706 5703 5699 5695 5690 5685 5681 5677 5674 5671 5667 5665 5663
5757 5753 5749 5746 5743 5741 5738 5737 5735 5733 5732 5729 5728 5726 5725 5723 5721 5720 5719 5718 5716 5714 5712 5710 5708 5705 5702 5702 5702 5700 5699 5696 5693 5688 5683 5678 5674 5669 5666 5664 5661 5658 5654
5754 5750 5746 5743 5740 5738 5735 5733 5731 5729 5727 5725 5723 5721 5719 5716 5712 5711 5712 5712 5710 5708 5706 5704 5702 5699 5695 5692 5690 5688 5687 5687 5684 5681 5676 5671 5666 5663 5659 5658 5654 5651 5646
5750 5746 5742 5739 5736 5734 5732 5729 5726 5724 5721 5719 5717 5715 5711 5707 5704 5704 5705 5706 5704 5701 5698 5697 5696 5692 5690 5688 5684 5681 5678 5675 5673 5672 5667 5663 5659 5655 5652 5650 5644 5641 5636
5746 5741 5738 5735 5732 5729 5726 5723 5721 5719 5716 5714 5711 5708 5705 5700 5698 5697 5698 5698 5696 5693 5690 5688 5686 5682 5680 5678 5677 5674 5670 5666 5664 5661 5657 5653 5649 5646 5643 5641 5637 5633 5629
5742 5737 5733 5730 5726 5724 5720 5717 5715 5713 5710 5708 5705 5702 5698 5693 5690 5690 5690 5691 5688 5684 5681 5678 5676 5673 5667 5668 5668 5665 5661 5656 5651 5647 5644 5640 5637 5635 5634 5634 5631 5629 5623
5738 5733 5729 5725 5721 5719 5715 5713 5710 5707 5705 5703 5698 5695 5692 5688 5683 5682 5682 5685 5680 5677 5672 5668 5662 5660 5657 5657 5658 5655 5651 5647 5644 5641 5636 5632 5630 5627 5624 5622 5622 5620 5615
5734 5729 5723 5720 5716 5712 5709 5707 5704 5701 5697 5694 5691 5687 5683 5679 5676 5674 5673 5676 5674 5670 5666 5661 5654 5648 5647 5646 5645 5644 5639 5637 5637 5634 5631 5627 5623 5619 5616 5612 5608 5607 5604
5729 5724 5719 5714 5711 5707 5703 5700 5697 5694 5690 5687 5684 5681 5677 5672 5668 5665 5663 5662 5662 5661 5657 5652 5644 5639 5637 5636 5635 5631 5630 5629 5630 5627 5623 5619 5615 5611 5606 5602 5597 5593 5589
5724 5719 5714 5709 5705 5702 5698 5694 5692 5689 5688 5685 5681 5678 5673 5668 5662 5657 5655 5653 5651 5650 5645 5638 5634 5631 5630 5629 5624 5623 5623 5624 5622 5618 5613 5609 5605 5600 5597 5592 5588 5584 5580
5717 5713 5708 5703 5700 5696 5693 5691 5688 5686 5684 5680 5677 5673 5668 5664 5659 5655 5651 5647 5643 5642 5638 5632 5628 5625 5623 5620 5618 5618 5616 5612 5611 5607 5603 5598 5595 5591 5588 5584 5581 5578 5574
5712 5708 5703 5699 5695 5689 5685 5681 5680 5676 5674 5672 5670 5666 5662 5658 5649 5644 5645 5643 5640 5635 5631 5629 5626 5623 5619 5616 5613 5609 5606 5603 5599 5596 5593 5589 5585 5581 5577 5574 5570 5568 5565
5708 5703 5700 5696 5690 5686 5681 5673 5664 5664 5660 5658 5656 5655 5651 5645 5640 5636 5633 5630 5627 5624 5624 5623 5619 5615 5612 5608 5604 5600 5596 5592 5588 5585 5582 5578 5575 5572 5568 5565 5561 5558 5555
5703 5699 5695 5691 5686 5683 5679 5673 5666 5656 5650 5648 5646 5643 5640 5635 5631 5628 5625 5621 5618 5616 5617 5615 5610 5606 5602 5598 5594 5590 5586 5581 5577 5575 5572 5568 5565 5562 5559 5556 5553 5549 5547
5698 5692 5689 5684 5681 5678 5675 5671 5667 5661 5655 5647 5638 5633 5630 5627 5623 5620 5617 5614 5614 5611 5610 5606 5601 5597 5593 5589 5585 5581 5577 5572 5569 5566 5563 5559 5556 5553 5550 5547 5544 5539 5537
5692 5688 5684 5680 5676 5673 5670 5667 5663 5658 5653 5647 5640 5630 5623 5619 5615 5612 5610 5612 5611 5607 5602 5598 5593 5589 5584 5579 5575 5571 5567 5564 5559 5556 5554 5549 5546 5543 5541 5538 5535 5528 5526
5683 5679 5676 5674 5670 5667 5664 5661 5657 5652 5648 5643 5637 5631 5623 5619 5616 5610 5606 5604 5602 5598 5593 5589 5584 5579 5574 5570 5566 5562 5559 5555 5550 5547 5544 5540 5538 5535 5532 5528 5527 5524 5521
5677 5671 5667 5667 5665 5661 5658 5654 5650 5647 5642 5637 5631 5624 5616 5618 5613 5607 5602 5598 5594 5590 5585 5580 5575 5570 5566 5562 5558 5554 5550 5547 5542 5538 5535 5532 5529 5526 5523 5521 5518 5516 5514
5671 5667 5663 5661 5658 5654 5651 5647 5644 5639 5635 5630 5624 5616 5607 5608 5606 5601 5596 5591 5586 5581 5576 5571 5568 5564 5559 5554 5549 5545 5541 5537 5532 5528 5525 5523 5520 5518 5516 5513 5510 5508 5505
5664 5660 5656 5653 5649 5643 5641 5639 5636 5631 5627 5623 5618 5612 5605 5601 5598 5593 5588 5583 5578 5573 5568 5563 5559 5555 5550 5544 5540 5536 5531 5527 5522 5518 5515 5514 5512 5511 5508 5506 5503 5500 5499
5656 5653 5649 5645 5642 5638 5634 5631 5627 5623 5620 5615 5610 5604 5599 5594 5590 5585 5581 5576 5570 5565 5560 5555 5551 5546 5539 5535 5531 5527 5520 5515 5510 5509 5505 5504 5504 5502 5501 5499 5496 5494 5491
5649 5646 5642 5638 5634 5630 5626 5622 5619 5615 5612 5607 5602 5597 5593 5588 5583 5578 5574 5568 5563 5558 5553 5548 5542 5537 5532 5527 5522 5517 5510 5505 5501 5499 5497 5497 5496 5494 5493 5491 5489 5487 5485
5640 5637 5633 5629 5625 5622 5618 5614 5611 5607 5604 5599 5595 5591 5586 5582 5577 5572 5567 5561 5556 5551 5545 5540 5535 5529 5524 5520 5514 5508 5502 5498 5494 5491 5489 5490 5490 5488 5485 5483 5482 5480 5479